Wetbulb
42.03 44.34 53.08 59.11 65.20 68.68 70.56 71.53 72.15 72.71 73.57 73.87 73.48 73.36 73.32 73.76 73.55 73.41 73.51 73.23 73.64 73.77 73.50 73.05 72.82 73.15 72.87 72.71 73.12 73.41 73.06 74.07 74.07 74.02 74.19 73.99 74.50 74.14 73.41 73.71 73.85 73.38 73.99
42.92 44.11 50.79 58.28 63.09 66.39 68.14 68.68 70.29 71.33 72.31 72.68 73.24 73.14 73.05 72.93 72.79 72.59 72.73 72.85 72.89 72.83 73.44 73.39 72.54 72.87 72.80 72.82 72.79 72.93 72.88 73.74 73.45 72.74 72.76 72.43 73.31 73.95 72.84 73.57 73.63 73.40 74.05
41.44 42.16 42.85 57.54 60.92 63.77 65.91 67.20 68.36 69.04 71.14 72.20 72.36 72.84 72.28 72.80 72.89 72.78 72.67 72.47 72.37 72.69 73.30 72.97 72.32 72.29 72.60 73.06 73.14 73.21 73.02 73.44 72.85 72.14 71.95 71.44 71.89 73.93 73.32 73.80 73.64 73.32 73.35
40.68 40.97 41.22 55.92 58.97 61.34 63.53 65.00 66.48 67.56 68.72 69.85 71.50 72.31 72.20 72.58 72.66 72.71 72.73 72.71 72.73 72.70 73.04 72.17 72.83 72.42 72.65 72.60 72.64 72.52 72.86 73.39 72.65 71.46 70.08 71.22 72.02 73.23 73.24 73.38 73.19 72.49 72.82
40.50 40.43 41.45 53.53 56.22 58.68 61.10 62.58 64.30 65.46 66.67 67.77 69.12 71.34 72.10 71.93 72.47 72.59 72.61 72.72 72.51 72.76 72.59 72.46 72.62 72.10 71.77 72.13 72.47 72.82 72.80 72.59 71.40 70.97 69.48 70.01 70.94 72.60 73.23 73.00 72.92 73.17 74.26
41.38 40.74 42.29 50.70 53.12 55.12 57.41 59.75 61.64 63.37 64.59 65.70 66.53 68.68 71.06 71.40 71.65 72.17 72.78 72.67 72.22 72.17 72.34 72.29 72.34 71.94 71.80 71.70 72.02 72.06 72.71 71.87 70.45 69.43 69.07 70.81 71.18 73.23 73.62 73.36 73.67 73.54 73.35
41.60 41.29 40.77 48.70 50.72 51.93 53.79 56.26 58.27 60.18 62.12 63.40 64.62 65.02 66.69 69.23 71.00 71.76 71.68 71.84 72.00 72.09 71.92 72.10 72.28 71.99 71.56 71.34 71.55 72.03 72.33 70.89 69.27 67.76 68.75 70.84 70.49 72.42 73.32 73.19 72.83 73.99 73.12
39.85 40.49 40.39 44.36 47.91 48.96 50.27 52.68 54.42 56.24 58.51 60.00 61.21 61.93 62.82 65.69 69.17 70.95 71.16 71.16 71.83 71.54 71.13 70.96 71.81 71.89 71.79 71.55 71.62 71.60 70.66 69.99 69.26 67.78 67.89 68.88 71.76 72.43 72.24 73.45 72.90 73.73 72.99
38.82 37.84 38.28 39.34 42.03 45.14 46.72 49.45 50.58 52.15 54.08 55.79 56.58 57.28 58.50 60.50 62.98 68.57 70.41 70.40 70.68 70.41 70.07 70.19 71.23 71.55 71.36 71.31 71.17 70.42 69.57 68.98 68.70 68.44 68.66 67.50 71.50 72.44 72.03 73.19 73.31 73.56 73.20
36.89 36.16 35.63 36.61 38.05 38.93 40.00 46.63 47.53 48.48 49.63 51.19 51.99 52.58 53.82 55.25 57.77 62.10 67.85 69.02 68.94 69.43 69.48 69.56 70.03 70.96 70.73 70.54 70.33 69.49 68.61 68.05 68.30 68.42 67.78 69.02 72.37 72.35 72.05 72.67 73.48 72.81 72.81
34.73 34.05 34.13 34.54 35.82 36.50 38.89 41.55 44.36 45.11 46.16 46.43 46.87 48.81 49.17 49.59 52.98 55.87 60.90 66.36 68.23 68.82 69.04 68.93 69.04 69.31 68.97 68.43 68.94 68.54 66.87 68.01 67.78 67.65 67.46 70.27 72.14 71.53 71.69 71.99 72.69 72.82 72.28
30.64 31.64 32.52 32.81 33.81 34.67 37.23 37.70 39.09 40.39 40.92 41.83 41.33 44.26 43.76 45.38 48.75 52.68 55.48 61.90 66.71 67.76 68.00 68.74 68.79 67.95 66.84 66.66 66.62 66.94 66.36 67.13 66.97 68.04 68.67 69.85 71.16 70.96 71.61 71.78 71.56 71.83 71.99
30.49 30.72 31.50 31.78 32.50 32.49 33.72 35.87 36.71 38.34 39.43 40.08 41.91 40.67 41.79 43.52 45.53 48.01 49.77 54.40 60.58 65.48 66.45 66.37 66.40 65.38 64.14 66.14 65.84 66.37 66.58 66.68 66.20 67.29 68.55 67.97 69.22 70.66 71.38 71.91 71.49 71.11 71.47
28.84 29.50 30.55 31.15 31.09 31.23 32.53 33.52 35.09 36.05 37.29 38.12 40.75 40.40 41.27 40.71 41.07 40.76 44.86 47.57 52.73 61.87 64.65 64.86 64.75 65.08 64.67 66.03 65.65 65.78 66.33 65.18 65.67 66.20 67.35 66.02 67.47 68.02 70.00 71.30 71.52 70.98 70.87
27.20 28.10 28.95 30.09 29.69 30.21 30.99 31.82 33.31 34.41 35.39 37.11 37.83 39.68 38.80 38.40 36.70 38.74 40.99 43.53 47.30 52.79 61.78 63.57 63.44 63.64 63.80 64.50 65.96 65.93 64.55 64.93 65.75 66.44 66.91 64.42 65.97 67.64 68.54 70.06 70.99 70.58 71.17
27.15 26.78 28.24 28.94 28.88 28.96 29.55 30.20 30.98 33.13 34.02 35.99 36.10 38.34 39.29 36.71 35.43 36.96 36.41 39.48 42.99 47.04 47.94 55.59 63.30 63.18 63.87 63.48 63.32 64.71 64.68 65.08 64.67 65.23 64.32 65.05 65.14 66.03 67.71 69.14 70.45 70.20 70.41
25.82 26.49 26.75 28.02 27.95 27.12 28.31 29.05 29.94 31.40 33.06 33.03 34.99 36.02 37.08 35.78 35.30 33.40 34.11 36.29 39.73 41.72 45.77 48.89 62.59 62.50 62.81 63.24 61.85 61.90 62.41 61.52 61.02 62.92 62.75 63.68 65.02 64.09 65.39 69.02 68.88 68.25 69.27
25.27 24.88 25.91 27.23 26.02 25.85 27.06 27.55 28.85 29.74 30.78 30.59 33.93 33.94 34.08 34.16 35.46 33.31 32.92 34.47 37.34 39.72 43.11 46.88 54.08 61.17 60.11 60.51 59.89 57.03 54.11 55.88 56.85 56.48 58.18 60.16 62.14 65.38 65.03 67.25 68.11 68.15 68.85
24.32 23.80 24.29 24.64 23.78 24.29 25.94 25.97 27.18 27.96 28.23 29.82 31.51 32.95 31.63 33.06 33.67 32.58 32.62 33.45 34.72 37.34 39.78 43.75 46.10 55.85 59.47 57.46 55.16 52.53 51.46 51.91 52.39 53.96 55.00 56.08 57.59 61.67 64.47 64.75 64.22 65.04 67.80
23.16 22.61 23.05 23.45 22.68 23.52 23.99 23.66 24.78 25.69 25.68 28.57 29.12 29.59 30.08 31.57 31.07 31.61 32.34 31.70 33.48 35.83 37.57 39.28 41.35 45.01 56.80 54.86 51.07 49.51 49.15 49.07 49.52 49.33 50.72 51.64 54.76 57.82 63.57 63.44 63.08 62.97 64.95
21.80 20.73 21.09 20.87 20.72 21.73 20.57 19.80 20.70 20.39 22.64 25.78 28.32 27.23 28.40 29.05 29.08 30.46 31.19 30.71 31.62 33.02 34.27 36.07 39.25 41.72 50.94 51.22 49.25 48.51 48.27 48.43 48.19 48.14 47.30 48.82 51.75 54.61 57.00 63.98 63.82 63.53 64.55
19.67 18.60 19.56 19.94 20.08 20.65 19.99 20.23 20.55 19.72 22.72 23.91 24.94 24.99 26.65 26.70 27.87 30.30 29.44 29.80 30.32 30.88 31.41 33.26 35.13 37.44 42.09 51.76 50.78 49.71 47.42 47.84 46.94 47.44 47.38 47.58 48.82 51.13 55.28 62.51 63.68 63.59 64.54
17.08 16.62 18.71 19.04 19.30 19.30 17.57 19.21 18.99 20.17 20.83 20.97 20.58 21.89 23.69 25.09 27.32 27.24 28.55 29.69 29.16 29.07 28.91 30.97 33.21 35.11 35.95 40.79 53.20 51.73 46.21 46.90 45.35 44.99 45.61 46.42 46.88 48.48 52.11 55.41 62.82 63.58 64.10
16.00 17.01 17.32 17.87 18.52 18.90 16.67 14.08 13.16 14.64 14.38 16.74 18.09 20.42 21.71 23.88 25.10 25.42 27.24 28.07 28.09 27.87 27.91 28.98 32.50 32.44 33.55 35.75 46.97 52.27 50.49 48.65 44.59 44.20 45.35 45.47 45.97 46.04 47.87 52.40 59.07 63.18 63.55
17.69 13.44 12.70 13.22 14.38 15.58 11.20 10.78 10.18 11.35 13.81 15.36 16.83 18.02 19.18 21.68 22.04 23.61 25.10 25.70 24.78 26.10 26.75 27.54 27.94 29.80 32.18 34.05 36.86 47.03 50.46 48.45 48.68 45.68 43.46 43.68 45.66 45.07 46.00 49.21 53.22 62.40 62.52
13.67 13.22 13.28 13.17 12.32 12.69 11.30 8.30 7.08 6.34 9.95 12.52 14.21 14.83 18.05 17.99 19.74 21.56 23.54 22.80 23.61 23.96 24.84 26.30 27.35 28.46 30.70 32.83 35.48 38.67 49.84 49.30 46.65 46.02 42.77 42.08 42.72 43.59 44.34 45.94 51.98 58.15 61.23
MSLP
1026.41 1026.21 1025.22 1023.44 1021.48 1019.93 1018.98 1018.24 1017.66 1017.43 1017.21 1017.02 1016.98 1017.02 1016.94 1016.94 1016.98 1017.04 1017.14 1017.02 1017.09 1017.15 1017.01 1016.86 1016.97 1016.86 1016.90 1016.96 1017.02 1017.00 1017.13 1017.13 1017.02 1016.93 1017.07 1017.10 1017.19 1017.07 1017.26 1017.38 1017.37 1017.31 1017.49
1028.39 1027.17 1026.02 1024.06 1022.34 1020.96 1019.96 1019.30 1018.66 1018.22 1017.72 1017.58 1017.47 1017.45 1017.30 1017.24 1017.26 1017.20 1017.14 1017.22 1017.34 1017.29 1017.26 1017.25 1017.09 1017.07 1017.16 1016.96 1017.04 1017.31 1017.37 1017.43 1017.35 1017.28 1017.40 1017.41 1017.50 1017.37 1017.41 1017.56 1017.56 1017.73 1017.77
1028.29 1027.64 1026.60 1024.51 1023.05 1021.88 1020.91 1020.09 1019.47 1018.95 1018.51 1018.02 1017.92 1017.80 1017.56 1017.55 1017.61 1017.62 1017.55 1017.45 1017.42 1017.43 1017.43 1017.32 1017.32 1017.35 1017.36 1017.36 1017.27 1017.36 1017.49 1017.57 1017.66 1017.40 1017.53 1017.57 1017.48 1017.59 1017.72 1017.90 1017.98 1018.02 1018.02
1028.24 1027.83 1027.14 1025.19 1023.80 1022.75 1021.81 1021.03 1020.34 1019.81 1019.40 1018.89 1018.42 1018.03 1017.95 1017.80 1017.72 1017.77 1017.85 1017.84 1017.75 1017.70 1017.67 1017.56 1017.58 1017.51 1017.57 1017.64 1017.60 1017.51 1017.61 1017.80 1017.87 1017.72 1017.59 1017.42 1017.29 1017.68 1017.99 1018.06 1018.19 1018.31 1018.30
1028.05 1027.77 1027.13 1025.61 1024.59 1023.68 1022.55 1021.89 1021.29 1020.70 1020.14 1019.66 1019.13 1018.59 1018.24 1018.13 1018.05 1017.94 1017.93 1017.99 1018.00 1017.89 1017.87 1017.82 1017.73 1017.72 1017.75 1017.73 1017.67 1017.70 1017.81 1017.92 1017.93 1017.88 1017.54 1017.28 1017.33 1017.62 1017.82 1018.02 1018.37 1018.44 1018.54
1027.83 1027.72 1027.30 1026.29 1025.36 1024.38 1023.41 1022.67 1022.09 1021.48 1020.94 1020.37 1019.91 1019.40 1018.83 1018.44 1018.26 1018.18 1018.14 1018.06 1018.07 1018.07 1018.04 1017.99 1017.96 1017.86 1017.89 1017.86 1017.87 1017.81 1017.85 1017.94 1017.97 1017.74 1017.36 1017.37 1017.24 1017.54 1017.76 1018.05 1018.41 1018.57 1018.78
1027.86 1027.79 1027.43 1026.66 1025.75 1024.97 1024.24 1023.53 1022.87 1022.29 1021.66 1021.15 1020.66 1020.22 1019.80 1019.24 1018.63 1018.48 1018.37 1018.23 1018.13 1018.08 1018.15 1018.09 1018.09 1018.01 1018.01 1017.96 1017.89 1017.96 1017.92 1018.00 1017.97 1017.65 1017.39 1017.25 1017.38 1017.56 1017.94 1018.05 1018.37 1018.56 1018.86
1028.58 1028.17 1027.68 1027.00 1026.23 1025.60 1025.04 1024.47 1023.78 1023.06 1022.46 1021.97 1021.49 1021.00 1020.52 1019.89 1019.13 1018.65 1018.52 1018.42 1018.31 1018.14 1018.18 1018.19 1018.10 1018.05 1018.07 1017.98 1018.00 1018.00 1017.99 1018.06 1017.89 1017.68 1017.35 1017.21 1017.33 1017.50 1017.80 1018.18 1018.32 1018.55 1018.86
1029.24 1028.71 1028.12 1027.45 1026.77 1026.18 1025.68 1025.22 1024.66 1024.01 1023.48 1022.85 1022.37 1021.87 1021.21 1020.57 1019.97 1019.22 1018.69 1018.51 1018.45 1018.29 1018.30 1018.26 1018.12 1018.03 1018.03 1018.03 1017.95 1017.95 1017.93 1017.95 1018.11 1017.76 1017.59 1017.11 1017.06 1017.48 1017.83 1018.13 1018.28 1018.53 1018.86
1029.69 1029.23 1028.65 1028.06 1027.48 1026.86 1026.23 1025.60 1025.27 1024.78 1024.29 1023.77 1023.13 1022.73 1022.09 1021.35 1020.77 1020.06 1019.10 1018.74 1018.51 1018.44 1018.36 1018.32 1018.22 1018.11 1017.94 1017.87 1017.89 1017.90 1017.97 1017.88 1017.93 1017.67 1017.64 1017.20 1017.22 1017.47 1017.72 1018.05 1018.24 1018.50 1018.83
1030.19 1030.01 1029.52 1028.85 1028.22 1027.63 1026.78 1026.21 1025.58 1025.38 1024.92 1024.58 1024.05 1023.70 1023.06 1022.52 1021.83 1021.15 1020.21 1019.45 1018.89 1018.55 1018.43 1018.30 1018.18 1018.10 1018.04 1017.86 1017.80 1017.82 1017.98 1017.91 1017.59 1017.45 1017.40 1017.11 1017.26 1017.45 1017.69 1017.98 1018.21 1018.41 1018.68
1030.70 1030.59 1030.41 1029.86 1029.26 1028.68 1027.83 1027.19 1026.53 1025.89 1025.62 1025.28 1025.21 1024.71 1024.30 1023.78 1023.00 1022.18 1021.07 1020.00 1019.21 1018.68 1018.44 1018.13 1018.00 1017.92 1017.97 1017.74 1017.73 1017.92 1017.84 1017.69 1017.45 1017.30 1017.49 1017.46 1017.49 1017.50 1017.60 1017.81 1018.08 1018.28 1018.46
1031.85 1031.48 1031.10 1030.61 1030.19 1029.54 1028.87 1028.15 1027.53 1026.92 1026.41 1026.09 1025.66 1025.69 1025.09 1024.55 1023.77 1023.07 1022.26 1021.37 1020.30 1018.92 1018.55 1018.01 1017.83 1017.77 1017.76 1017.55 1017.50 1017.67 1017.62 1017.54 1017.51 1017.51 1017.61 1017.75 1017.84 1017.71 1017.57 1017.66 1017.92 1018.12 1018.32
1032.32 1032.20 1031.88 1031.35 1030.91 1030.38 1029.80 1029.19 1028.52 1027.89 1027.42 1026.92 1026.36 1026.09 1025.60 1025.35 1024.91 1024.45 1023.63 1022.70 1021.72 1020.04 1018.88 1018.44 1018.21 1017.80 1017.49 1017.25 1017.30 1017.39 1017.35 1017.43 1017.58 1017.59 1017.61 1017.79 1017.93 1018.04 1017.84 1017.67 1017.69 1017.89 1018.12
1033.02 1032.82 1032.54 1032.04 1031.67 1031.23 1030.51 1029.98 1029.30 1028.68 1028.19 1027.60 1027.16 1026.70 1026.67 1026.46 1026.12 1025.29 1024.60 1023.73 1022.80 1021.56 1019.81 1018.55 1018.47 1018.05 1017.64 1017.47 1017.22 1017.27 1017.31 1017.28 1017.42 1017.39 1017.54 1017.55 1017.78 1017.95 1017.68 1017.59 1017.41 1017.54 1017.66
1033.62 1033.39 1033.14 1032.62 1032.37 1031.90 1031.25 1030.71 1030.20 1029.46 1028.90 1028.21 1027.84 1027.41 1027.12 1027.17 1026.89 1026.18 1025.59 1024.58 1023.61 1022.75 1021.75 1020.21 1018.36 1018.14 1017.64 1017.57 1017.44 1017.26 1017.22 1017.38 1017.51 1017.45 1017.45 1017.33 1017.65 1017.70 1017.42 1017.34 1017.06 1017.11 1017.16
1033.89 1033.83 1033.43 1032.91 1032.85 1032.53 1031.91 1031.45 1030.84 1030.27 1029.55 1029.02 1028.36 1027.99 1027.75 1027.63 1027.26 1027.19 1026.49 1025.35 1024.78 1023.53 1022.10 1020.76 1018.26 1017.86 1017.58 1017.53 1017.67 1017.49 1017.48 1017.52 1017.70 1017.74 1017.67 1017.50 1017.46 1017.37 1017.23 1017.04 1016.96 1017.05 1016.98
1034.06 1033.88 1033.64 1033.35 1033.20 1032.89 1032.34 1032.00 1031.44 1030.93 1030.31 1029.87 1028.96 1028.53 1028.34 1028.05 1027.68 1027.46 1027.01 1026.14 1025.43 1024.03 1022.91 1021.59 1019.90 1018.01 1017.60 1017.62 1017.84 1017.94 1018.09 1017.92 1017.94 1018.00 1018.12 1017.91 1017.75 1017.19 1017.08 1016.93 1016.89 1016.68 1016.36
1034.56 1034.53 1034.25 1033.99 1033.82 1033.37 1032.82 1032.53 1031.99 1031.50 1031.06 1030.34 1029.70 1028.99 1028.99 1028.46 1028.09 1027.73 1027.23 1026.63 1025.97 1024.75 1023.53 1022.54 1020.97 1019.10 1017.61 1017.69 1017.92 1018.30 1018.34 1018.30 1018.21 1018.05 1018.07 1018.15 1017.89 1017.38 1017.06 1016.84 1016.86 1016.48 1015.59
1034.89 1034.95 1034.74 1034.52 1034.42 1033.91 1033.59 1033.28 1032.66 1032.09 1031.73 1030.87 1030.29 1029.95 1029.47 1028.90 1028.60 1027.99 1027.42 1027.06 1026.35 1025.19 1024.06 1022.96 1022.20 1020.28 1018.25 1017.49 1018.00 1018.37 1018.45 1018.50 1018.36 1018.25 1018.20 1018.14 1017.83 1017.44 1017.04 1016.65 1017.00 1016.87 1016.14
1035.03 1035.13 1035.00 1034.80 1034.67 1034.21 1034.01 1033.57 1032.91 1032.59 1031.98 1031.28 1030.66 1030.65 1030.05 1029.50 1028.99 1028.26 1027.60 1027.13 1026.61 1025.76 1024.93 1023.86 1022.64 1021.46 1019.09 1017.70 1018.05 1018.42 1018.44 1018.43 1018.34 1018.12 1018.16 1018.04 1017.67 1017.39 1017.26 1016.42 1016.78 1017.23 1016.86
1035.34 1035.50 1035.46 1035.46 1035.25 1034.90 1034.91 1034.82 1034.50 1033.82 1032.42 1032.08 1031.62 1031.18 1030.57 1030.06 1029.39 1028.47 1028.07 1027.37 1026.85 1026.14 1025.29 1024.39 1023.81 1022.58 1020.53 1017.88 1017.38 1017.86 1018.08 1018.33 1018.15 1017.87 1017.86 1017.80 1017.58 1017.45 1016.93 1016.30 1016.32 1016.85 1016.90
1035.71 1035.75 1035.75 1035.71 1035.46 1035.40 1035.75 1035.31 1034.73 1033.80 1033.16 1032.32 1032.18 1031.58 1030.96 1030.41 1029.62 1029.15 1028.37 1027.62 1027.05 1026.70 1025.78 1024.83 1023.91 1023.57 1022.06 1019.79 1017.00 1016.47 1017.09 1017.40 1017.70 1017.71 1017.74 1017.50 1017.52 1017.39 1016.81 1016.55 1015.79 1016.24 1016.56
1036.09 1036.12 1036.20 1036.21 1036.02 1035.87 1035.97 1035.90 1035.63 1035.05 1034.47 1033.72 1033.02 1032.19 1031.40 1030.65 1029.96 1029.52 1028.68 1027.92 1027.38 1026.81 1026.02 1025.16 1024.15 1023.66 1022.96 1020.73 1018.43 1016.00 1015.70 1015.99 1016.78 1017.31 1017.43 1017.40 1017.40 1017.21 1016.75 1016.32 1015.78 1015.33 1015.91
1036.10 1036.27 1036.46 1036.61 1036.52 1036.16 1036.42 1036.39 1035.86 1035.35 1035.04 1034.13 1033.43 1032.53 1031.70 1030.80 1030.44 1029.71 1028.99 1028.18 1027.68 1026.90 1026.15 1025.40 1024.50 1023.72 1022.92 1021.56 1019.33 1017.75 1015.45 1015.62 1015.69 1016.14 1016.96 1017.21 1017.23 1016.91 1016.71 1016.28 1015.59 1014.71 1014.99
1036.12 1036.37 1036.56 1036.52 1036.51 1036.35 1036.39 1036.26 1035.87 1035.48 1034.89 1034.33 1033.58 1032.83 1031.86 1031.25 1030.40 1029.72 1029.05 1028.57 1027.70 1026.96 1026.02 1025.17 1024.30 1023.27 1021.72 1020.83 1019.46 1018.43 1015.89 1014.51 1014.74 1015.21 1016.29 1016.86 1016.95 1016.74 1016.61 1016.30 1015.54 1014.63 1014.55
Wind_Speed
16 24 34 36 35 33 30 27 21 15 13 11 11 11 11 10 10 8 8 8 8 9 9 6 4 5 5 3 5 5 6 7 7 8 8 7 9 10 7 4 5 9 13
16 21 31 33 33 31 29 28 27 26 18 14 13 11 11 10 10 9 9 9 9 9 9 9 5 4 5 4 3 3 3 5 5 6 6 7 6 7 4 4 8 7 11
16 18 21 32 32 31 30 29 29 28 26 19 15 14 11 11 11 11 9 8 9 9 10 8 6 5 5 5 5 2 1 2 3 3 2 3 5 4 5 8 10 7 9
15 15 18 30 31 31 30 31 29 28 28 25 24 16 14 11 9 10 10 10 10 9 10 8 8 6 5 5 3 4 2 1 3 5 4 5 7 9 5 7 9 9 10
13 15 18 30 31 30 30 31 29 29 28 27 25 23 17 13 12 10 10 9 10 10 10 9 8 7 5 5 4 4 4 3 3 6 6 6 4 8 8 7 7 9 9
12 13 19 28 30 30 31 32 30 29 29 28 27 25 24 18 15 12 10 9 9 9 9 10 9 7 6 5 4 2 3 4 5 6 6 6 3 9 10 9 8 8 8
15 14 15 27 30 30 30 32 31 31 29 29 28 28 26 24 18 14 9 8 7 8 9 9 7 6 6 6 5 5 3 3 5 7 7 4 3 7 9 9 8 8 9
16 16 17 24 29 29 29 31 31 31 30 30 29 29 29 26 22 16 11 8 6 8 9 10 7 5 5 6 6 5 5 4 6 6 7 2 5 5 8 9 9 8 9
16 16 17 18 22 27 28 30 29 30 30 29 30 31 30 28 27 26 12 8 6 7 8 9 8 6 4 5 6 5 5 6 5 4 7 4 5 6 9 10 9 10 12
15 17 18 18 18 18 16 28 28 29 29 29 30 32 30 27 28 27 23 10 5 6 6 7 8 7 6 6 6 5 5 5 5 6 4 1 3 4 8 10 11 13 10
14 17 17 19 18 19 17 18 21 26 28 26 25 29 21 14 16 21 24 14 11 6 6 7 7 7 7 7 7 2 2 3 5 4 3 1 1 4 7 9 11 11 12
18 18 17 17 18 17 14 16 15 14 13 14 16 17 13 15 14 18 21 25 17 10 8 9 8 9 6 4 3 4 3 5 4 2 3 4 4 3 6 7 9 12 12
14 14 17 16 17 17 14 11 9 9 9 9 14 16 13 12 12 11 10 11 13 7 5 4 4 3 6 5 1 3 4 3 2 1 4 5 7 8 6 6 6 10 14
15 15 16 16 16 16 11 10 10 10 10 9 12 15 12 9 12 12 9 12 12 12 6 5 4 6 6 5 1 3 4 2 2 2 0 4 8 9 9 8 7 7 13
13 14 15 15 15 15 13 11 10 10 10 11 11 11 10 11 11 11 12 11 11 13 12 4 5 5 5 5 3 3 4 4 3 1 2 4 5 8 10 11 10 9 13
12 13 13 14 15 15 13 13 11 10 11 10 10 11 11 10 11 11 12 12 12 12 13 15 4 5 4 5 5 4 4 2 4 4 2 1 5 9 10 13 10 9 14
8 11 13 14 14 15 14 12 10 10 11 10 9 13 13 14 11 12 11 11 12 13 16 14 9 5 4 4 4 4 3 4 4 5 4 4 4 9 9 11 7 6 11
10 13 13 13 15 15 12 10 9 10 9 10 9 10 15 15 14 11 11 11 13 12 12 12 15 6 4 3 2 2 2 3 3 4 5 5 5 5 4 7 9 7 9
8 10 12 13 14 15 13 11 10 11 10 9 10 9 15 14 15 13 10 11 14 11 11 12 13 14 4 2 3 0 1 1 3 3 3 5 6 6 3 7 10 9 14
7 8 9 9 12 12 9 9 8 8 9 9 9 11 15 12 15 13 10 12 12 11 11 12 14 13 8 3 3 1 1 2 2 2 3 3 4 7 7 6 5 4 21
7 9 11 12 13 11 10 11 9 11 10 9 8 14 14 14 15 14 9 12 12 12 14 13 13 14 11 3 3 1 1 3 3 3 2 3 4 5 7 7 6 4 9
7 8 10 11 11 10 9 8 6 10 6 9 9 12 13 15 15 13 14 11 12 12 14 12 12 11 11 5 4 2 3 2 3 3 2 3 3 4 5 7 10 10 10
7 7 8 10 10 8 7 7 8 6 6 6 9 10 11 15 14 15 14 12 11 10 11 12 11 11 10 12 10 4 3 5 2 2 3 1 3 3 3 5 11 11 11
4 4 5 6 6 6 6 6 7 6 9 9 10 10 12 14 13 14 14 13 13 10 12 12 11 11 10 11 13 6 2 4 5 2 2 2 2 2 4 3 7 14 13
2 3 4 4 4 4 4 3 3 6 6 8 9 13 13 11 13 13 14 13 13 11 12 13 15 13 9 11 9 11 5 2 1 3 3 3 2 1 2 4 5 8 14
1 3 3 4 4 4 3 4 4 5 8 9 10 10 9 11 10 12 13 13 13 14 14 13 13 16 13 12 10 13 11 6 4 4 3 2 2 1 2 4 4 4 11
Wind_Direction
337 337 340 341 355 3 15 13 1 3 9 17 16 17 23 30 31 31 26 21 9 11 360 6 28 45 27 21 38 42 35 32 51 60 65 81 99 105 115 133 89 104 113
327 337 341 342 357 3 12 17 18 12 358 360 3 9 14 19 25 28 26 15 7 0 359 5 30 26 13 26 59 43 41 42 40 67 96 94 99 115 109 348 126 104 117
343 346 340 349 359 3 12 15 18 17 12 3 352 351 359 9 9 9 12 13 4 359 357 13 16 20 24 15 16 51 33 51 22 15 265 182 127 115 71 98 108 126 127
349 348 345 357 2 4 12 15 16 15 12 11 5 349 344 346 360 358 358 360 355 356 360 3 4 4 10 33 13 10 24 335 275 282 278 250 153 146 113 114 121 145 138
357 357 352 1 4 6 12 14 15 15 12 9 7 0 347 338 336 343 347 356 356 357 355 354 357 347 353 13 29 13 10 359 302 266 270 286 124 159 145 140 140 151 147
11 6 -0 3 6 9 11 13 13 14 13 10 9 4 357 346 342 340 340 347 350 356 350 345 345 345 337 337 343 338 -0 336 310 275 262 275 91 157 165 162 164 186 150
11 10 5 6 9 11 10 11 12 11 11 10 9 6 359 353 340 336 334 333 343 358 357 351 340 338 329 323 322 322 325 306 296 299 317 204 113 153 185 175 173 177 172
13 9 5 5 8 11 11 10 10 10 9 8 8 6 -0 354 348 332 334 337 343 6 0 350 337 329 314 310 312 316 332 285 286 279 285 216 158 174 202 187 186 181 181
15 12 7 5 6 7 7 10 9 9 7 7 7 4 360 356 354 348 318 318 352 11 3 358 351 338 319 295 297 304 315 297 283 290 311 292 153 200 218 199 189 188 195
17 13 8 5 5 3 3 7 8 7 7 6 7 3 359 358 352 348 340 335 346 359 352 351 349 334 315 300 288 295 291 285 265 273 281 359 137 201 227 212 199 202 198
18 14 8 5 5 2 360 1 4 5 8 7 4 2 359 353 348 344 338 328 310 323 325 317 316 316 309 282 262 234 284 254 240 241 260 179 179 218 229 226 207 207 197
14 10 10 6 5 1 358 1 360 360 3 6 1 2 359 350 349 345 343 339 318 307 291 270 271 281 282 255 231 223 229 247 268 245 10 40 356 284 235 234 227 216 198
13 11 9 5 4 3 357 1 358 360 1 357 -0 7 357 351 353 354 343 343 330 311 289 314 275 233 259 229 257 268 259 272 314 307 88 40 2 340 278 244 241 229 208
15 12 6 6 6 3 357 360 355 357 2 355 4 1 3 355 357 349 342 338 330 328 319 330 326 320 315 320 214 303 295 246 277 304 80 17 9 323 298 278 245 241 213
18 11 7 5 9 2 1 357 355 356 356 351 359 357 9 2 351 340 340 335 329 328 322 295 294 295 311 330 311 284 302 328 282 207 113 26 324 296 290 266 247 236 209
16 13 4 8 10 1 1 358 355 352 350 357 351 2 1 4 353 350 338 334 330 333 323 316 273 276 283 288 289 264 239 313 3 343 337 92 301 291 279 266 236 231 227
16 9 9 6 10 3 359 359 352 353 349 355 346 357 12 360 355 350 335 335 329 326 322 321 278 255 250 251 282 59 34 38 10 331 348 345 290 280 261 258 181 216 233
14 11 9 9 7 1 2 359 352 351 353 343 350 343 9 352 353 348 337 334 329 326 323 320 317 258 243 239 192 105 32 8 345 2 344 336 315 288 238 211 120 76 248
20 11 10 8 6 356 359 355 352 350 354 339 349 347 354 347 352 343 339 331 333 326 324 324 319 316 228 165 148 118 336 304 305 320 312 315 310 306 255 175 137 104 51
29 16 13 11 7 357 359 348 350 351 346 344 339 4 344 347 347 337 335 336 334 327 327 332 322 318 288 163 126 128 283 277 280 280 282 288 302 303 291 148 148 134 111
21 15 13 7 6 4 3 353 352 351 337 349 350 350 345 345 338 334 338 335 336 334 325 326 323 317 301 155 115 138 227 230 251 244 273 277 284 290 304 177 164 173 147
19 12 11 10 3 5 5 350 345 333 338 328 350 336 339 340 333 336 334 331 336 329 327 330 329 321 314 230 156 155 212 236 237 227 235 261 284 292 270 253 165 175 170
17 3 11 4 0 5 359 343 341 324 335 340 340 334 335 332 329 337 328 327 330 330 319 319 327 312 318 310 264 170 161 221 164 189 222 242 261 275 284 293 193 181 178
5 2 13 359 348 352 356 350 347 344 336 329 325 322 328 325 333 325 325 330 326 320 312 313 316 313 300 297 294 249 202 135 190 222 243 239 241 285 297 281 258 183 176
48 13 1 335 339 342 347 333 321 335 318 317 320 321 320 325 324 323 323 326 320 319 308 305 309 306 288 284 293 306 200 178 192 134 204 237 226 284 301 303 294 190 172
78 52 357 334 319 334 326 328 336 319 325 324 323 322 324 323 320 317 318 319 316 310 312 305 299 295 301 288 287 280 264 183 185 150 145 182 236 294 305 316 293 221 175